Location: Naloco
(16.5478°S, 37.1017°E)
Time: 02:42:29
(UTC+00:00)

Cosmos 1328 Rocket - Pass Details

Date: 13 August 2020
Orbit: 602 x 626 km, 82.5° (Epoch: 23 September)

Event Time Altitude Azimuth Distance (km) Brightness Sun altitude
Rises 17:00:47 0° 349° (N) 2,892 7.3 -23.9°
Reaches altitude 10° 17:03:02 10° 345° (NNW) 1,992 6.4 -24.4°
Maximum altitude 17:07:23 60° 265° (W) 719 4.0 -25.5°
Enters shadow 17:09:21 31° 197° (SSW) 1,103 4.8 -25.9°
